#datetime,building,power
2023-08-13T00:00:00,mcc,55.92
2023-08-13T00:01:00,mcc,67.85
2023-08-13T00:02:00,mcc,56.15
2023-08-13T00:03:00,mcc,57.33
2023-08-13T00:04:00,mcc,56.77
2023-08-13T00:05:00,mcc,53.65
2023-08-13T00:06:00,mcc,54.16
2023-08-13T00:07:00,mcc,53.76
2023-08-13T00:08:00,mcc,58.08
2023-08-13T00:09:00,mcc,57.56
2023-08-13T00:10:00,mcc,58.19
2023-08-13T00:11:00,mcc,57.59
2023-08-13T00:12:00,mcc,59.09
2023-08-13T00:13:00,mcc,57.78
2023-08-13T00:14:00,mcc,59.23
2023-08-13T00:15:00,mcc,58.67
2023-08-13T00:16:00,mcc,57.40
2023-08-13T00:17:00,mcc,58.27
2023-08-13T00:18:00,mcc,58.18
2023-08-13T00:19:00,mcc,58.94
2023-08-13T00:20:00,mcc,58.89
2023-08-13T00:21:00,mcc,57.95
2023-08-13T00:22:00,mcc,57.51
2023-08-13T00:23:00,mcc,58.71
2023-08-13T00:24:00,mcc,57.40
2023-08-13T00:25:00,mcc,56.56
2023-08-13T00:26:00,mcc,56.67
2023-08-13T00:27:00,mcc,58.28
2023-08-13T00:28:00,mcc,56.66
2023-08-13T00:29:00,mcc,56.52
2023-08-13T00:30:00,mcc,58.01
2023-08-13T00:31:00,mcc,57.23
2023-08-13T00:32:00,mcc,57.93
2023-08-13T00:33:00,mcc,58.05
2023-08-13T00:34:00,mcc,57.50
2023-08-13T00:35:00,mcc,57.15
2023-08-13T00:36:00,mcc,55.77
2023-08-13T00:37:00,mcc,64.38
2023-08-13T00:38:00,mcc,63.59
2023-08-13T00:39:00,mcc,58.31
2023-08-13T00:40:00,mcc,59.92
2023-08-13T00:41:00,mcc,58.98
2023-08-13T00:42:00,mcc,58.94
2023-08-13T00:43:00,mcc,60.21
2023-08-13T00:44:00,mcc,58.84
2023-08-13T00:45:00,mcc,61.52
2023-08-13T00:46:00,mcc,61.48
2023-08-13T00:47:00,mcc,62.40
2023-08-13T00:48:00,mcc,61.36
2023-08-13T00:49:00,mcc,61.34
2023-08-13T00:50:00,mcc,57.98
2023-08-13T00:51:00,mcc,55.70
2023-08-13T00:52:00,mcc,55.84
2023-08-13T00:53:00,mcc,57.84
2023-08-13T00:54:00,mcc,54.26
2023-08-13T00:55:00,mcc,55.91
2023-08-13T00:56:00,mcc,63.53
2023-08-13T00:57:00,mcc,54.43
2023-08-13T00:58:00,mcc,55.92
2023-08-13T00:59:00,mcc,54.60
2023-08-13T01:00:00,mcc,55.12
2023-08-13T01:01:00,mcc,57.67
2023-08-13T01:02:00,mcc,57.28
2023-08-13T01:03:00,mcc,56.61
2023-08-13T01:04:00,mcc,55.23
2023-08-13T01:05:00,mcc,55.72
2023-08-13T01:06:00,mcc,55.50
2023-08-13T01:07:00,mcc,55.82
2023-08-13T01:08:00,mcc,54.85
2023-08-13T01:09:00,mcc,56.27
2023-08-13T01:10:00,mcc,57.15
2023-08-13T01:11:00,mcc,56.23
2023-08-13T01:12:00,mcc,57.51
2023-08-13T01:13:00,mcc,62.17
2023-08-13T01:14:00,mcc,64.98
2023-08-13T01:15:00,mcc,56.06
2023-08-13T01:16:00,mcc,58.76
2023-08-13T01:17:00,mcc,57.29
2023-08-13T01:18:00,mcc,57.05
2023-08-13T01:19:00,mcc,57.12
2023-08-13T01:20:00,mcc,55.27
2023-08-13T01:21:00,mcc,57.35
2023-08-13T01:22:00,mcc,57.85
2023-08-13T01:23:00,mcc,50.17
2023-08-13T01:24:00,mcc,47.68
2023-08-13T01:25:00,mcc,49.33
2023-08-13T01:26:00,mcc,46.63
2023-08-13T01:27:00,mcc,47.56
2023-08-13T01:28:00,mcc,48.73
2023-08-13T01:29:00,mcc,48.18
2023-08-13T01:30:00,mcc,40.79
2023-08-13T01:31:00,mcc,41.48
2023-08-13T01:32:00,mcc,42.69
2023-08-13T01:33:00,mcc,50.81
2023-08-13T01:34:00,mcc,42.10
2023-08-13T01:35:00,mcc,41.62
2023-08-13T01:36:00,mcc,42.20
2023-08-13T01:37:00,mcc,40.98
2023-08-13T01:38:00,mcc,41.44
2023-08-13T01:39:00,mcc,41.83
2023-08-13T01:40:00,mcc,41.97
2023-08-13T01:41:00,mcc,41.56
2023-08-13T01:42:00,mcc,42.25
2023-08-13T01:43:00,mcc,41.65
2023-08-13T01:44:00,mcc,50.39
2023-08-13T01:45:00,mcc,41.71
2023-08-13T01:46:00,mcc,41.37
2023-08-13T01:47:00,mcc,43.31
2023-08-13T01:48:00,mcc,42.92
2023-08-13T01:49:00,mcc,43.91
2023-08-13T01:50:00,mcc,43.85
2023-08-13T01:51:00,mcc,44.41
2023-08-13T01:52:00,mcc,52.48
2023-08-13T01:53:00,mcc,44.29
2023-08-13T01:54:00,mcc,43.89
2023-08-13T01:55:00,mcc,42.15
2023-08-13T01:56:00,mcc,40.39
2023-08-13T01:57:00,mcc,40.84
2023-08-13T01:58:00,mcc,39.36
2023-08-13T01:59:00,mcc,39.49
2023-08-13T02:00:00,mcc,40.35
2023-08-13T02:01:00,mcc,41.24
2023-08-13T02:02:00,mcc,40.33
2023-08-13T02:03:00,mcc,39.63
2023-08-13T02:04:00,mcc,39.42
2023-08-13T02:05:00,mcc,38.88
2023-08-13T02:06:00,mcc,38.39
2023-08-13T02:07:00,mcc,36.68
2023-08-13T02:08:00,mcc,35.77
2023-08-13T02:09:00,mcc,36.93
2023-08-13T02:10:00,mcc,37.01
2023-08-13T02:11:00,mcc,40.48
2023-08-13T02:12:00,mcc,41.22
2023-08-13T02:13:00,mcc,41.26
2023-08-13T02:14:00,mcc,40.27
2023-08-13T02:15:00,mcc,38.94
2023-08-13T02:16:00,mcc,39.21
2023-08-13T02:17:00,mcc,40.24
2023-08-13T02:18:00,mcc,41.14
2023-08-13T02:19:00,mcc,39.89
2023-08-13T02:20:00,mcc,39.68
2023-08-13T02:21:00,mcc,39.26
2023-08-13T02:22:00,mcc,41.05
2023-08-13T02:23:00,mcc,41.77
2023-08-13T02:24:00,mcc,40.29
2023-08-13T02:25:00,mcc,40.26
2023-08-13T02:26:00,mcc,37.51
2023-08-13T02:27:00,mcc,45.50
2023-08-13T02:28:00,mcc,45.19
2023-08-13T02:29:00,mcc,54.08
2023-08-13T02:30:00,mcc,45.35
2023-08-13T02:31:00,mcc,44.57
2023-08-13T02:32:00,mcc,37.16
2023-08-13T02:33:00,mcc,37.18
2023-08-13T02:34:00,mcc,36.72
2023-08-13T02:35:00,mcc,37.74
2023-08-13T02:36:00,mcc,37.83
2023-08-13T02:37:00,mcc,38.04
2023-08-13T02:38:00,mcc,37.01
2023-08-13T02:39:00,mcc,36.46
2023-08-13T02:40:00,mcc,35.43
2023-08-13T02:41:00,mcc,36.91
2023-08-13T02:42:00,mcc,37.78
2023-08-13T02:43:00,mcc,38.77
2023-08-13T02:44:00,mcc,39.06
2023-08-13T02:45:00,mcc,50.45
2023-08-13T02:46:00,mcc,49.91
2023-08-13T02:47:00,mcc,49.09
2023-08-13T02:48:00,mcc,57.99
2023-08-13T02:49:00,mcc,40.82
2023-08-13T02:50:00,mcc,39.60
2023-08-13T02:51:00,mcc,40.49
2023-08-13T02:52:00,mcc,41.50
2023-08-13T02:53:00,mcc,41.51
2023-08-13T02:54:00,mcc,42.68
2023-08-13T02:55:00,mcc,42.09
2023-08-13T02:56:00,mcc,40.50
2023-08-13T02:57:00,mcc,41.12
2023-08-13T02:58:00,mcc,40.95
2023-08-13T02:59:00,mcc,39.03
2023-08-13T03:00:00,mcc,39.54
2023-08-13T03:01:00,mcc,39.35
2023-08-13T03:02:00,mcc,38.94
2023-08-13T03:03:00,mcc,38.44
2023-08-13T03:04:00,mcc,39.20
2023-08-13T03:05:00,mcc,38.80
2023-08-13T03:06:00,mcc,38.59
2023-08-13T03:07:00,mcc,46.40
2023-08-13T03:08:00,mcc,39.38
2023-08-13T03:09:00,mcc,38.77
2023-08-13T03:10:00,mcc,37.73
2023-08-13T03:11:00,mcc,37.08
2023-08-13T03:12:00,mcc,36.52
2023-08-13T03:13:00,mcc,37.09
2023-08-13T03:14:00,mcc,37.97
2023-08-13T03:15:00,mcc,40.36
2023-08-13T03:16:00,mcc,39.77
2023-08-13T03:17:00,mcc,38.62
2023-08-13T03:18:00,mcc,37.97
2023-08-13T03:19:00,mcc,40.00
2023-08-13T03:20:00,mcc,41.55
2023-08-13T03:21:00,mcc,40.79
2023-08-13T03:22:00,mcc,41.23
2023-08-13T03:23:00,mcc,41.22
2023-08-13T03:24:00,mcc,40.70
2023-08-13T03:25:00,mcc,39.84
2023-08-13T03:26:00,mcc,40.15
2023-08-13T03:27:00,mcc,36.55
2023-08-13T03:28:00,mcc,37.38
2023-08-13T03:29:00,mcc,37.49
2023-08-13T03:30:00,mcc,37.65
2023-08-13T03:31:00,mcc,37.55
2023-08-13T03:32:00,mcc,38.45
2023-08-13T03:33:00,mcc,38.53
2023-08-13T03:34:00,mcc,39.12
2023-08-13T03:35:00,mcc,39.82
2023-08-13T03:36:00,mcc,38.66
2023-08-13T03:37:00,mcc,39.18
2023-08-13T03:38:00,mcc,40.33
2023-08-13T03:39:00,mcc,39.77
2023-08-13T03:40:00,mcc,39.14
2023-08-13T03:41:00,mcc,37.81
2023-08-13T03:42:00,mcc,37.83
2023-08-13T03:43:00,mcc,38.28
2023-08-13T03:44:00,mcc,37.18
2023-08-13T03:45:00,mcc,46.75
2023-08-13T03:46:00,mcc,37.02
2023-08-13T03:47:00,mcc,36.06
2023-08-13T03:48:00,mcc,37.78
2023-08-13T03:49:00,mcc,39.20
2023-08-13T03:50:00,mcc,40.29
2023-08-13T03:51:00,mcc,42.43
2023-08-13T03:52:00,mcc,41.10
2023-08-13T03:53:00,mcc,41.65
2023-08-13T03:54:00,mcc,41.66
2023-08-13T03:55:00,mcc,40.67
2023-08-13T03:56:00,mcc,41.34
2023-08-13T03:57:00,mcc,42.13
2023-08-13T03:58:00,mcc,39.77
2023-08-13T03:59:00,mcc,39.31
2023-08-13T04:00:00,mcc,39.24
2023-08-13T04:01:00,mcc,37.90
2023-08-13T04:02:00,mcc,39.46
2023-08-13T04:03:00,mcc,47.70
2023-08-13T04:04:00,mcc,39.60
2023-08-13T04:05:00,mcc,39.15
2023-08-13T04:06:00,mcc,40.33
2023-08-13T04:07:00,mcc,38.26
2023-08-13T04:08:00,mcc,39.34
2023-08-13T04:09:00,mcc,39.60
2023-08-13T04:10:00,mcc,38.26
2023-08-13T04:11:00,mcc,37.51
2023-08-13T04:12:00,mcc,37.68
2023-08-13T04:13:00,mcc,38.14
2023-08-13T04:14:00,mcc,38.50
2023-08-13T04:15:00,mcc,37.48
2023-08-13T04:16:00,mcc,37.93
2023-08-13T04:17:00,mcc,36.37
2023-08-13T04:18:00,mcc,35.84
2023-08-13T04:19:00,mcc,37.09
2023-08-13T04:20:00,mcc,38.61
2023-08-13T04:21:00,mcc,40.15
2023-08-13T04:22:00,mcc,48.50
2023-08-13T04:23:00,mcc,39.74
2023-08-13T04:24:00,mcc,41.18
2023-08-13T04:25:00,mcc,42.06
2023-08-13T04:26:00,mcc,42.76
2023-08-13T04:27:00,mcc,41.60
2023-08-13T04:28:00,mcc,40.64
2023-08-13T04:29:00,mcc,39.47
2023-08-13T04:30:00,mcc,37.18
2023-08-13T04:31:00,mcc,37.38
2023-08-13T04:32:00,mcc,37.39
2023-08-13T04:33:00,mcc,37.13
2023-08-13T04:34:00,mcc,37.14
2023-08-13T04:35:00,mcc,37.11
2023-08-13T04:36:00,mcc,35.96
2023-08-13T04:37:00,mcc,36.32
2023-08-13T04:38:00,mcc,34.83
2023-08-13T04:39:00,mcc,35.88
2023-08-13T04:40:00,mcc,44.18
2023-08-13T04:41:00,mcc,37.81
2023-08-13T04:42:00,mcc,38.20
2023-08-13T04:43:00,mcc,38.81
2023-08-13T04:44:00,mcc,39.47
2023-08-13T04:45:00,mcc,39.52
2023-08-13T04:46:00,mcc,39.96
2023-08-13T04:47:00,mcc,39.98
2023-08-13T04:48:00,mcc,38.52
2023-08-13T04:49:00,mcc,38.66
2023-08-13T04:50:00,mcc,37.37
2023-08-13T04:51:00,mcc,38.10
2023-08-13T04:52:00,mcc,40.29
2023-08-13T04:53:00,mcc,41.85
2023-08-13T04:54:00,mcc,39.79
2023-08-13T04:55:00,mcc,40.66
2023-08-13T04:56:00,mcc,40.41
2023-08-13T04:57:00,mcc,41.69
2023-08-13T04:58:00,mcc,42.73
2023-08-13T04:59:00,mcc,41.01
2023-08-13T05:00:00,mcc,37.95
2023-08-13T05:01:00,mcc,38.28
2023-08-13T05:02:00,mcc,38.75
2023-08-13T05:03:00,mcc,40.32
2023-08-13T05:04:00,mcc,40.21
2023-08-13T05:05:00,mcc,41.09
2023-08-13T05:06:00,mcc,40.15
2023-08-13T05:07:00,mcc,37.07
2023-08-13T05:08:00,mcc,37.37
2023-08-13T05:09:00,mcc,36.96
2023-08-13T05:10:00,mcc,38.77
2023-08-13T05:11:00,mcc,38.98
2023-08-13T05:12:00,mcc,38.38
2023-08-13T05:13:00,mcc,38.56
2023-08-13T05:14:00,mcc,38.07
2023-08-13T05:15:00,mcc,37.65
2023-08-13T05:16:00,mcc,37.97
2023-08-13T05:17:00,mcc,37.84
2023-08-13T05:18:00,mcc,45.78
2023-08-13T05:19:00,mcc,36.99
2023-08-13T05:20:00,mcc,38.82
2023-08-13T05:21:00,mcc,38.40
2023-08-13T05:22:00,mcc,41.43
2023-08-13T05:23:00,mcc,41.76
2023-08-13T05:24:00,mcc,42.05
2023-08-13T05:25:00,mcc,40.49
2023-08-13T05:26:00,mcc,40.87
2023-08-13T05:27:00,mcc,41.78
2023-08-13T05:28:00,mcc,41.84
2023-08-13T05:29:00,mcc,41.32
2023-08-13T05:30:00,mcc,40.12
2023-08-13T05:31:00,mcc,37.36
2023-08-13T05:32:00,mcc,37.87
2023-08-13T05:33:00,mcc,39.24
2023-08-13T05:34:00,mcc,39.35
2023-08-13T05:35:00,mcc,41.63
2023-08-13T05:36:00,mcc,42.11
2023-08-13T05:37:00,mcc,43.41
2023-08-13T05:38:00,mcc,38.95
2023-08-13T05:39:00,mcc,38.17
2023-08-13T05:40:00,mcc,38.32
2023-08-13T05:41:00,mcc,36.94
2023-08-13T05:42:00,mcc,38.40
2023-08-13T05:43:00,mcc,38.82
2023-08-13T05:44:00,mcc,37.54
2023-08-13T05:45:00,mcc,37.48
2023-08-13T05:46:00,mcc,36.38
2023-08-13T05:47:00,mcc,35.94
2023-08-13T05:48:00,mcc,36.06
2023-08-13T05:49:00,mcc,35.54
2023-08-13T05:50:00,mcc,36.16
2023-08-13T05:51:00,mcc,35.24
2023-08-13T05:52:00,mcc,35.19
2023-08-13T05:53:00,mcc,35.99
2023-08-13T05:54:00,mcc,39.45
2023-08-13T05:55:00,mcc,39.84
2023-08-13T05:56:00,mcc,43.08
2023-08-13T05:57:00,mcc,39.90
2023-08-13T05:58:00,mcc,40.63
2023-08-13T05:59:00,mcc,41.27
2023-08-13T06:00:00,mcc,41.99
2023-08-13T06:01:00,mcc,39.82
2023-08-13T06:02:00,mcc,37.79
2023-08-13T06:03:00,mcc,38.46
2023-08-13T06:04:00,mcc,37.14
2023-08-13T06:05:00,mcc,36.37
2023-08-13T06:06:00,mcc,38.44
2023-08-13T06:07:00,mcc,37.63
2023-08-13T06:08:00,mcc,38.09
2023-08-13T06:09:00,mcc,37.09
2023-08-13T06:10:00,mcc,39.47
2023-08-13T06:11:00,mcc,39.85
2023-08-13T06:12:00,mcc,42.70
2023-08-13T06:13:00,mcc,43.57
2023-08-13T06:14:00,mcc,55.78
2023-08-13T06:15:00,mcc,48.18
2023-08-13T06:16:00,mcc,47.96
2023-08-13T06:17:00,mcc,45.90
2023-08-13T06:18:00,mcc,46.01
2023-08-13T06:19:00,mcc,46.18
2023-08-13T06:20:00,mcc,46.40
2023-08-13T06:21:00,mcc,45.44
2023-08-13T06:22:00,mcc,46.12
2023-08-13T06:23:00,mcc,46.43
2023-08-13T06:24:00,mcc,47.67
2023-08-13T06:25:00,mcc,49.90
2023-08-13T06:26:00,mcc,50.55
2023-08-13T06:27:00,mcc,48.79
2023-08-13T06:28:00,mcc,48.35
2023-08-13T06:29:00,mcc,50.53
2023-08-13T06:30:00,mcc,48.71
2023-08-13T06:31:00,mcc,48.59
2023-08-13T06:32:00,mcc,57.12
2023-08-13T06:33:00,mcc,48.54
2023-08-13T06:34:00,mcc,52.30
2023-08-13T06:35:00,mcc,51.69
2023-08-13T06:36:00,mcc,50.71
2023-08-13T06:37:00,mcc,50.14
2023-08-13T06:38:00,mcc,49.68
2023-08-13T06:39:00,mcc,52.45
2023-08-13T06:40:00,mcc,51.11
2023-08-13T06:41:00,mcc,51.52
2023-08-13T06:42:00,mcc,50.99
2023-08-13T06:43:00,mcc,47.30
2023-08-13T06:44:00,mcc,47.35
2023-08-13T06:45:00,mcc,48.23
2023-08-13T06:46:00,mcc,48.07
2023-08-13T06:47:00,mcc,47.57
2023-08-13T06:48:00,mcc,46.35
2023-08-13T06:49:00,mcc,46.21
2023-08-13T06:50:00,mcc,54.15
2023-08-13T06:51:00,mcc,47.14
2023-08-13T06:52:00,mcc,47.12
2023-08-13T06:53:00,mcc,46.73
2023-08-13T06:54:00,mcc,48.49
2023-08-13T06:55:00,mcc,47.61
2023-08-13T06:56:00,mcc,49.52
2023-08-13T06:57:00,mcc,49.92
2023-08-13T06:58:00,mcc,49.29
2023-08-13T06:59:00,mcc,49.51
2023-08-13T07:00:00,mcc,48.41
2023-08-13T07:01:00,mcc,47.75
2023-08-13T07:02:00,mcc,46.92
2023-08-13T07:03:00,mcc,47.60
2023-08-13T07:04:00,mcc,47.58
2023-08-13T07:05:00,mcc,47.30
2023-08-13T07:06:00,mcc,47.48
2023-08-13T07:07:00,mcc,47.53
2023-08-13T07:08:00,mcc,45.97
2023-08-13T07:09:00,mcc,46.96
2023-08-13T07:10:00,mcc,46.84
2023-08-13T07:11:00,mcc,48.08
2023-08-13T07:12:00,mcc,48.41
2023-08-13T07:13:00,mcc,47.56
2023-08-13T07:14:00,mcc,49.61
2023-08-13T07:15:00,mcc,50.11
2023-08-13T07:16:00,mcc,47.34
2023-08-13T07:17:00,mcc,48.95
2023-08-13T07:18:00,mcc,46.36
2023-08-13T07:19:00,mcc,46.66
2023-08-13T07:20:00,mcc,46.06
2023-08-13T07:21:00,mcc,58.26
2023-08-13T07:22:00,mcc,58.00
2023-08-13T07:23:00,mcc,58.02
2023-08-13T07:24:00,mcc,57.91
2023-08-13T07:25:00,mcc,48.25
2023-08-13T07:26:00,mcc,50.18
2023-08-13T07:27:00,mcc,57.71
2023-08-13T07:28:00,mcc,56.73
2023-08-13T07:29:00,mcc,47.56
2023-08-13T07:30:00,mcc,48.80
2023-08-13T07:31:00,mcc,48.65
2023-08-13T07:32:00,mcc,47.34
2023-08-13T07:33:00,mcc,47.51
2023-08-13T07:34:00,mcc,46.88
2023-08-13T07:35:00,mcc,45.97
2023-08-13T07:36:00,mcc,45.94
2023-08-13T07:37:00,mcc,47.01
2023-08-13T07:38:00,mcc,46.66
2023-08-13T07:39:00,mcc,46.87
2023-08-13T07:40:00,mcc,47.91
2023-08-13T07:41:00,mcc,47.62
2023-08-13T07:42:00,mcc,47.80
2023-08-13T07:43:00,mcc,48.15
2023-08-13T07:44:00,mcc,48.51
2023-08-13T07:45:00,mcc,48.24
2023-08-13T07:46:00,mcc,56.81
2023-08-13T07:47:00,mcc,46.75
2023-08-13T07:48:00,mcc,45.23
2023-08-13T07:49:00,mcc,44.25
2023-08-13T07:50:00,mcc,44.24
2023-08-13T07:51:00,mcc,44.23
2023-08-13T07:52:00,mcc,45.49
2023-08-13T07:53:00,mcc,45.81
2023-08-13T07:54:00,mcc,39.93
2023-08-13T07:55:00,mcc,40.46
2023-08-13T07:56:00,mcc,39.06
2023-08-13T07:57:00,mcc,40.67
2023-08-13T07:58:00,mcc,42.14
2023-08-13T07:59:00,mcc,43.35
2023-08-13T08:00:00,mcc,44.56
2023-08-13T08:01:00,mcc,44.73
2023-08-13T08:02:00,mcc,43.37
2023-08-13T08:03:00,mcc,43.14
2023-08-13T08:04:00,mcc,50.77
2023-08-13T08:05:00,mcc,40.38
2023-08-13T08:06:00,mcc,41.45
2023-08-13T08:07:00,mcc,40.17
2023-08-13T08:08:00,mcc,39.29
2023-08-13T08:09:00,mcc,39.55
2023-08-13T08:10:00,mcc,37.95
2023-08-13T08:11:00,mcc,41.91
2023-08-13T08:12:00,mcc,41.62
2023-08-13T08:13:00,mcc,41.91
2023-08-13T08:14:00,mcc,50.75
2023-08-13T08:15:00,mcc,50.74
2023-08-13T08:16:00,mcc,50.49
2023-08-13T08:17:00,mcc,50.22
2023-08-13T08:18:00,mcc,47.59
2023-08-13T08:19:00,mcc,41.72
2023-08-13T08:20:00,mcc,39.42
2023-08-13T08:21:00,mcc,38.84
2023-08-13T08:22:00,mcc,38.28
2023-08-13T08:23:00,mcc,51.23
2023-08-13T08:24:00,mcc,40.95
2023-08-13T08:25:00,mcc,41.03
2023-08-13T08:26:00,mcc,39.27
2023-08-13T08:27:00,mcc,38.46
2023-08-13T08:28:00,mcc,40.74
2023-08-13T08:29:00,mcc,41.45
2023-08-13T08:30:00,mcc,42.03
2023-08-13T08:31:00,mcc,48.73
2023-08-13T08:32:00,mcc,48.18
2023-08-13T08:33:00,mcc,48.98
2023-08-13T08:34:00,mcc,48.23
2023-08-13T08:35:00,mcc,46.28
2023-08-13T08:36:00,mcc,45.94
2023-08-13T08:37:00,mcc,44.65
2023-08-13T08:38:00,mcc,43.67
2023-08-13T08:39:00,mcc,43.84
2023-08-13T08:40:00,mcc,43.16
2023-08-13T08:41:00,mcc,51.54
2023-08-13T08:42:00,mcc,44.54
2023-08-13T08:43:00,mcc,43.77
2023-08-13T08:44:00,mcc,44.46
2023-08-13T08:45:00,mcc,44.26
2023-08-13T08:46:00,mcc,47.52
2023-08-13T08:47:00,mcc,47.32
2023-08-13T08:48:00,mcc,47.80
2023-08-13T08:49:00,mcc,48.80
2023-08-13T08:50:00,mcc,48.75
2023-08-13T08:51:00,mcc,49.18
2023-08-13T08:52:00,mcc,47.60
2023-08-13T08:53:00,mcc,43.67
2023-08-13T08:54:00,mcc,45.28
2023-08-13T08:55:00,mcc,44.13
2023-08-13T08:56:00,mcc,42.98
2023-08-13T08:57:00,mcc,42.70
2023-08-13T08:58:00,mcc,42.35
2023-08-13T08:59:00,mcc,53.47
2023-08-13T09:00:00,mcc,45.47
2023-08-13T09:01:00,mcc,46.15
2023-08-13T09:02:00,mcc,47.87
2023-08-13T09:03:00,mcc,47.19
2023-08-13T09:04:00,mcc,47.92
2023-08-13T09:05:00,mcc,46.55
2023-08-13T09:06:00,mcc,46.00
2023-08-13T09:07:00,mcc,45.55
2023-08-13T09:08:00,mcc,45.06
2023-08-13T09:09:00,mcc,45.34
2023-08-13T09:10:00,mcc,46.04
2023-08-13T09:11:00,mcc,44.95
2023-08-13T09:12:00,mcc,44.15
2023-08-13T09:13:00,mcc,44.68
2023-08-13T09:14:00,mcc,44.66
2023-08-13T09:15:00,mcc,44.65
2023-08-13T09:16:00,mcc,43.11
2023-08-13T09:17:00,mcc,43.09
2023-08-13T09:18:00,mcc,51.90
2023-08-13T09:19:00,mcc,45.32
2023-08-13T09:20:00,mcc,44.38
2023-08-13T09:21:00,mcc,46.26
2023-08-13T09:22:00,mcc,45.76
2023-08-13T09:23:00,mcc,46.71
2023-08-13T09:24:00,mcc,47.16
2023-08-13T09:25:00,mcc,45.48
2023-08-13T09:26:00,mcc,45.25
2023-08-13T09:27:00,mcc,44.77
2023-08-13T09:28:00,mcc,44.40
2023-08-13T09:29:00,mcc,44.63
2023-08-13T09:30:00,mcc,44.20
2023-08-13T09:31:00,mcc,46.87
2023-08-13T09:32:00,mcc,45.66
2023-08-13T09:33:00,mcc,46.52
2023-08-13T09:34:00,mcc,46.39
2023-08-13T09:35:00,mcc,45.99
2023-08-13T09:36:00,mcc,53.38
2023-08-13T09:37:00,mcc,46.28
2023-08-13T09:38:00,mcc,48.09
2023-08-13T09:39:00,mcc,47.38
2023-08-13T09:40:00,mcc,48.87
2023-08-13T09:41:00,mcc,48.40
2023-08-13T09:42:00,mcc,47.84
2023-08-13T09:43:00,mcc,47.17
2023-08-13T09:44:00,mcc,47.85
2023-08-13T09:45:00,mcc,48.25
2023-08-13T09:46:00,mcc,48.66
2023-08-13T09:47:00,mcc,47.39
2023-08-13T09:48:00,mcc,45.11
2023-08-13T09:49:00,mcc,46.33
2023-08-13T09:50:00,mcc,46.47
2023-08-13T09:51:00,mcc,49.48
2023-08-13T09:52:00,mcc,47.99
2023-08-13T09:53:00,mcc,47.68
2023-08-13T09:54:00,mcc,47.97
2023-08-13T09:55:00,mcc,46.90
2023-08-13T09:56:00,mcc,49.57
2023-08-13T09:57:00,mcc,47.21
2023-08-13T09:58:00,mcc,45.99
2023-08-13T09:59:00,mcc,45.27
2023-08-13T10:00:00,mcc,47.09
2023-08-13T10:01:00,mcc,48.23
2023-08-13T10:02:00,mcc,46.95
2023-08-13T10:03:00,mcc,47.35
2023-08-13T10:04:00,mcc,46.51
2023-08-13T10:05:00,mcc,46.32
2023-08-13T10:06:00,mcc,45.54
2023-08-13T10:07:00,mcc,45.62
2023-08-13T10:08:00,mcc,45.59
2023-08-13T10:09:00,mcc,44.21
2023-08-13T10:10:00,mcc,44.61
2023-08-13T10:11:00,mcc,45.75
2023-08-13T10:12:00,mcc,44.45
2023-08-13T10:13:00,mcc,44.34
2023-08-13T10:14:00,mcc,44.87
2023-08-13T10:15:00,mcc,45.13
2023-08-13T10:16:00,mcc,47.37
2023-08-13T10:17:00,mcc,46.98
2023-08-13T10:18:00,mcc,47.69
2023-08-13T10:19:00,mcc,47.18
2023-08-13T10:20:00,mcc,46.80
2023-08-13T10:21:00,mcc,46.54
2023-08-13T10:22:00,mcc,50.04
2023-08-13T10:23:00,mcc,51.06
2023-08-13T10:24:00,mcc,52.49
2023-08-13T10:25:00,mcc,50.68
2023-08-13T10:26:00,mcc,51.60
2023-08-13T10:27:00,mcc,50.61
2023-08-13T10:28:00,mcc,51.44
2023-08-13T10:29:00,mcc,49.55
2023-08-13T10:30:00,mcc,48.35
2023-08-13T10:31:00,mcc,58.27
2023-08-13T10:32:00,mcc,50.78
2023-08-13T10:33:00,mcc,51.22
2023-08-13T10:34:00,mcc,50.78
2023-08-13T10:35:00,mcc,49.89
2023-08-13T10:36:00,mcc,48.87
2023-08-13T10:37:00,mcc,48.90
2023-08-13T10:38:00,mcc,49.12
2023-08-13T10:39:00,mcc,47.90
2023-08-13T10:40:00,mcc,46.20
2023-08-13T10:41:00,mcc,46.30
2023-08-13T10:42:00,mcc,45.94
2023-08-13T10:43:00,mcc,46.41
2023-08-13T10:44:00,mcc,46.55
2023-08-13T10:45:00,mcc,46.86
2023-08-13T10:46:00,mcc,45.62
2023-08-13T10:47:00,mcc,46.32
2023-08-13T10:48:00,mcc,46.28
2023-08-13T10:49:00,mcc,46.09
2023-08-13T10:50:00,mcc,46.28
2023-08-13T10:51:00,mcc,46.21
2023-08-13T10:52:00,mcc,45.73
2023-08-13T10:53:00,mcc,44.99
2023-08-13T10:54:00,mcc,48.16
2023-08-13T10:55:00,mcc,47.80
2023-08-13T10:56:00,mcc,48.78
2023-08-13T10:57:00,mcc,48.09
2023-08-13T10:58:00,mcc,48.11
2023-08-13T10:59:00,mcc,47.80
2023-08-13T11:00:00,mcc,47.79
2023-08-13T11:01:00,mcc,46.51
2023-08-13T11:02:00,mcc,45.54
2023-08-13T11:03:00,mcc,47.17
2023-08-13T11:04:00,mcc,47.63
2023-08-13T11:05:00,mcc,46.65
2023-08-13T11:06:00,mcc,49.21
2023-08-13T11:07:00,mcc,49.50
2023-08-13T11:08:00,mcc,49.70
2023-08-13T11:09:00,mcc,49.58
2023-08-13T11:10:00,mcc,51.15
2023-08-13T11:11:00,mcc,48.18
2023-08-13T11:12:00,mcc,49.33
2023-08-13T11:13:00,mcc,48.92
2023-08-13T11:14:00,mcc,49.41
2023-08-13T11:15:00,mcc,48.81
2023-08-13T11:16:00,mcc,47.90
2023-08-13T11:17:00,mcc,47.52
2023-08-13T11:18:00,mcc,47.16
2023-08-13T11:19:00,mcc,46.34
2023-08-13T11:20:00,mcc,46.82
2023-08-13T11:21:00,mcc,47.21
2023-08-13T11:22:00,mcc,46.86
2023-08-13T11:23:00,mcc,46.20
2023-08-13T11:24:00,mcc,45.85
2023-08-13T11:25:00,mcc,45.27
2023-08-13T11:26:00,mcc,47.27
2023-08-13T11:27:00,mcc,49.15
2023-08-13T11:28:00,mcc,48.41
2023-08-13T11:29:00,mcc,47.03
2023-08-13T11:30:00,mcc,48.00
2023-08-13T11:31:00,mcc,47.19
2023-08-13T11:32:00,mcc,47.00
2023-08-13T11:33:00,mcc,47.33
2023-08-13T11:34:00,mcc,47.23
2023-08-13T11:35:00,mcc,51.14
2023-08-13T11:36:00,mcc,48.67
2023-08-13T11:37:00,mcc,49.61
2023-08-13T11:38:00,mcc,49.48
2023-08-13T11:39:00,mcc,49.64
2023-08-13T11:40:00,mcc,48.93
2023-08-13T11:41:00,mcc,48.80
2023-08-13T11:42:00,mcc,47.88
2023-08-13T11:43:00,mcc,45.95
2023-08-13T11:44:00,mcc,46.29
2023-08-13T11:45:00,mcc,55.15
2023-08-13T11:46:00,mcc,46.56
2023-08-13T11:47:00,mcc,47.76
2023-08-13T11:48:00,mcc,46.32
2023-08-13T11:49:00,mcc,46.89
2023-08-13T11:50:00,mcc,46.37
2023-08-13T11:51:00,mcc,46.37
2023-08-13T11:52:00,mcc,47.84
2023-08-13T11:53:00,mcc,47.20
2023-08-13T11:54:00,mcc,47.03
2023-08-13T11:55:00,mcc,47.31
2023-08-13T11:56:00,mcc,56.84
2023-08-13T11:57:00,mcc,58.42
2023-08-13T11:58:00,mcc,59.01
2023-08-13T11:59:00,mcc,56.59
2023-08-13T12:00:00,mcc,46.70
2023-08-13T12:01:00,mcc,47.66
2023-08-13T12:02:00,mcc,46.24
2023-08-13T12:03:00,mcc,57.90
2023-08-13T12:04:00,mcc,50.28
2023-08-13T12:05:00,mcc,50.54
2023-08-13T12:06:00,mcc,49.88
2023-08-13T12:07:00,mcc,49.40
2023-08-13T12:08:00,mcc,50.28
2023-08-13T12:09:00,mcc,48.04
2023-08-13T12:10:00,mcc,48.56
2023-08-13T12:11:00,mcc,57.10
2023-08-13T12:12:00,mcc,53.33
2023-08-13T12:13:00,mcc,53.35
2023-08-13T12:14:00,mcc,51.33
2023-08-13T12:15:00,mcc,52.60
2023-08-13T12:16:00,mcc,53.81
2023-08-13T12:17:00,mcc,46.23
2023-08-13T12:18:00,mcc,45.11
2023-08-13T12:19:00,mcc,45.28
2023-08-13T12:20:00,mcc,48.72
2023-08-13T12:21:00,mcc,54.71
2023-08-13T12:22:00,mcc,48.86
2023-08-13T12:23:00,mcc,49.91
2023-08-13T12:24:00,mcc,49.46
2023-08-13T12:25:00,mcc,48.14
2023-08-13T12:26:00,mcc,47.12
2023-08-13T12:27:00,mcc,46.96
2023-08-13T12:28:00,mcc,48.69
2023-08-13T12:29:00,mcc,46.03
2023-08-13T12:30:00,mcc,45.58
2023-08-13T12:31:00,mcc,52.30
2023-08-13T12:32:00,mcc,55.27
2023-08-13T12:33:00,mcc,54.70
2023-08-13T12:34:00,mcc,55.43
2023-08-13T12:35:00,mcc,56.09
2023-08-13T12:36:00,mcc,55.53
2023-08-13T12:37:00,mcc,55.84
2023-08-13T12:38:00,mcc,57.62
2023-08-13T12:39:00,mcc,66.24
2023-08-13T12:40:00,mcc,58.03
2023-08-13T12:41:00,mcc,57.75
2023-08-13T12:42:00,mcc,57.75
2023-08-13T12:43:00,mcc,58.99
2023-08-13T12:44:00,mcc,58.28
2023-08-13T12:45:00,mcc,55.34
2023-08-13T12:46:00,mcc,55.69
2023-08-13T12:47:00,mcc,55.07
2023-08-13T12:48:00,mcc,53.57
2023-08-13T12:49:00,mcc,53.80
2023-08-13T12:50:00,mcc,53.13
2023-08-13T12:51:00,mcc,53.70
2023-08-13T12:52:00,mcc,53.30
2023-08-13T12:53:00,mcc,57.05
2023-08-13T12:54:00,mcc,68.44
2023-08-13T12:55:00,mcc,58.13
2023-08-13T12:56:00,mcc,57.46
2023-08-13T12:57:00,mcc,56.62
2023-08-13T12:58:00,mcc,64.43
2023-08-13T12:59:00,mcc,56.42
2023-08-13T13:00:00,mcc,52.68
2023-08-13T13:01:00,mcc,56.84
2023-08-13T13:02:00,mcc,55.58
2023-08-13T13:03:00,mcc,59.82
2023-08-13T13:04:00,mcc,48.50
2023-08-13T13:05:00,mcc,55.96
2023-08-13T13:06:00,mcc,55.84
2023-08-13T13:07:00,mcc,56.00
2023-08-13T13:08:00,mcc,56.01
2023-08-13T13:09:00,mcc,56.82
2023-08-13T13:10:00,mcc,58.95
2023-08-13T13:11:00,mcc,58.78
2023-08-13T13:12:00,mcc,58.76
2023-08-13T13:13:00,mcc,60.09
2023-08-13T13:14:00,mcc,60.20
2023-08-13T13:15:00,mcc,59.82
2023-08-13T13:16:00,mcc,59.52
2023-08-13T13:17:00,mcc,57.05
2023-08-13T13:18:00,mcc,55.46